Simultaneous Nadir Overpasses (SNOs) Predictions

Prediction of SNOs near equator between AQUA and NPP Satellite Orbit:

Table of predicted SNOs near equator for the next 14.0 days since TLE Epoch: 1/28/2012
Index Date (AQUA) Time (AQUA) AQUA Lat,Lon Date (NPP) Time (NPP) NPP Lat,Lon Distance(km) Time Diff (sec)
1 01/30/2012 00:57:54 3.33,-171.15 01/30/2012 00:48:42 3.22,-171.55 45.52 552
2 01/30/2012 01:46:00 1.28, -2.51 01/30/2012 01:38:04 1.39, -3.19 75.76 476
3 02/01/2012 16:32:30 -29.99, 130.92 02/01/2012 16:22:30 -30.38, 130.37 69.12 600
4 02/01/2012 17:14:29 2.75, -55.21 02/01/2012 17:05:26 2.64, -55.65 50.23 543
5 02/01/2012 18:02:37 1.74, 113.40 02/01/2012 17:54:49 1.91, 112.70 80.45 468
6 02/04/2012 08:49:20 -29.98,-113.28 02/04/2012 08:39:20 -30.21,-113.82 57.55 600
7 02/04/2012 09:31:16 2.56, 60.62 02/04/2012 09:22:16 2.47, 60.16 52.39 540
8 02/04/2012 10:19:24 1.94,-130.76 02/04/2012 10:11:39 2.08,-131.49 82.57 465
9 02/07/2012 01:06:17 -29.95, 2.49 02/07/2012 00:56:17 -30.40, 1.90 76.07 600
10 02/07/2012 01:48:18 2.82, 176.33 02/07/2012 01:39:14 2.72, 175.87 52.03 544
11 02/07/2012 02:36:26 1.68, -15.06 02/07/2012 02:28:37 1.83, -15.78 82.19 469
12 02/09/2012 18:05:32 3.42, -68.06 02/09/2012 17:56:18 3.33, -68.49 49.05 554
13 02/09/2012 18:53:40 1.10, 100.56 02/09/2012 18:45:41 1.23, 99.86 79.24 479




NCC Satellite Simultaneous Nadir Overpasses (SNOs) Prediction Service
